• In Denmark
  • List of Countries
  • For 7 days
  • Water Temperature
  • Satellite Maps
  • Weather Map
  • Weather Widgets
  • user-avatar
    Login

    Hourly Weather Ashkelon

    Today, 24 January, Wednesday

    Time Temperature Precipitation Wind Pressure Humidity
    00:00 +14°C° 0.3 mm 4 mps 758 mmHg 76%
    01:00 +13°C° 0.3 mm 4 mps 758 mmHg 76%
    02:00 +13°C° 0 mm 4 mps 758 mmHg 76%
    03:00 +13°C° 0.4 mm 4 mps 758 mmHg 75%
    04:00 +13°C° 0.4 mm 3 mps 758 mmHg 74%
    05:00 +13°C° 0.4 mm 3 mps 758 mmHg 73%
    06:00 +13°C° 0.4 mm 4 mps 758 mmHg 71%
    07:00 +13°C° 0.4 mm 4 mps 758 mmHg 70%
    08:00 +14°C° 0.4 mm 4 mps 758 mmHg 68%
    09:00 +15°C° 0.3 mm 4 mps 758 mmHg 65%
    10:00 +16°C° 0.3 mm 5 mps 758 mmHg 61%
    11:00 +17°C° 0.3 mm 5 mps 758 mmHg 58%
    12:00 +17°C° 0.3 mm 5 mps 758 mmHg 57%
    13:00 +17°C° 0.3 mm 5 mps 757 mmHg 57%
    14:00 +17°C° 0.3 mm 6 mps 757 mmHg 56%
    15:00 +17°C° 0.3 mm 5 mps 757 mmHg 59%
    16:00 +17°C° 0.3 mm 4 mps 757 mmHg 62%
    17:00 +17°C° 0.3 mm 3 mps 757 mmHg 65%
    18:00 +16°C° 0.3 mm 3 mps 757 mmHg 68%
    19:00 +15°C° 0.3 mm 2 mps 757 mmHg 72%
    20:00 +15°C° 0.3 mm 2 mps 757 mmHg 76%
    21:00 +14°C° 0.4 mm 2 mps 757 mmHg 77%
    22:00 +14°C° 0.4 mm 1 mps 757 mmHg 78%
    23:00 +14°C° 0.4 mm 1 mps 757 mmHg 80%

    Tomorrow, 25 January, Thursday

    Time Temperature Precipitation Wind Pressure Humidity
    00:00 +14°C° 1 mm 2 mps 757 mmHg 80%
    01:00 +14°C° 1 mm 2 mps 757 mmHg 80%
    02:00 +13°C° 1 mm 3 mps 756 mmHg 80%
    03:00 +13°C° 1.7 mm 3 mps 756 mmHg 80%
    04:00 +13°C° 1.7 mm 3 mps 756 mmHg 81%
    05:00 +12°C° 1.7 mm 4 mps 756 mmHg 82%
    06:00 +13°C° 2 mm 5 mps 756 mmHg 80%
    07:00 +13°C° 2 mm 5 mps 756 mmHg 78%
    08:00 +13°C° 2 mm 6 mps 756 mmHg 76%
    09:00 +12°C° 1.3 mm 8 mps 756 mmHg 75%
    10:00 +12°C° 1.3 mm 9 mps 756 mmHg 74%
    11:00 +13°C° 1.3 mm 10 mps 756 mmHg 73%
    12:00 +13°C° 0.5 mm 10 mps 755 mmHg 71%
    13:00 +13°C° 0.5 mm 11 mps 755 mmHg 68%
    14:00 +13°C° 0.5 mm 11 mps 755 mmHg 66%
    15:00 +13°C° 0.5 mm 11 mps 755 mmHg 65%
    16:00 +13°C° 0.5 mm 10 mps 755 mmHg 65%
    17:00 +13°C° 0.5 mm 10 mps 755 mmHg 64%
    18:00 +12°C° 0.4 mm 10 mps 755 mmHg 63%
    19:00 +12°C° 0.4 mm 10 mps 756 mmHg 63%
    20:00 +12°C° 0.4 mm 11 mps 756 mmHg 62%
    21:00 +11°C° 0.1 mm 11 mps 756 mmHg 63%
    22:00 +9°C° 0.1 mm 11 mps 756 mmHg 64%
    23:00 +8°C° 0.1 mm 11 mps 756 mmHg 65%

    Day after tomorrow, 26 January, Friday

    Time Temperature Precipitation Wind Pressure Humidity
    00:00 +8°C° 0.2 mm 11 mps 756 mmHg 66%
    01:00 +8°C° 0.2 mm 11 mps 757 mmHg 66%
    02:00 +8°C° 0.2 mm 11 mps 757 mmHg 67%
    03:00 +7°C° 0.3 mm 11 mps 757 mmHg 68%
    04:00 +7°C° 0.3 mm 11 mps 757 mmHg 69%
    05:00 +7°C° 0.3 mm 11 mps 757 mmHg 70%
    06:00 +7°C° 0.5 mm 12 mps 757 mmHg 70%
    07:00 +7°C° 0.5 mm 12 mps 757 mmHg 70%
    08:00 +8°C° 0.5 mm 13 mps 758 mmHg 71%
    09:00 +8°C° 0.4 mm 13 mps 758 mmHg 67%
    10:00 +9°C° 0.4 mm 13 mps 758 mmHg 64%
    11:00 +10°C° 0.4 mm 14 mps 758 mmHg 60%
    12:00 +9°C° 1 mm 13 mps 758 mmHg 63%
    13:00 +9°C° 1 mm 13 mps 757 mmHg 65%
    14:00 +9°C° 1 mm 13 mps 757 mmHg 68%
    15:00 +9°C° 1 mm 12 mps 757 mmHg 69%
    16:00 +9°C° 1 mm 12 mps 757 mmHg 70%
    17:00 +11°C° 1 mm 11 mps 758 mmHg 72%
    18:00 +9°C° 1 mm 11 mps 758 mmHg 74%
    19:00 +9°C° 1 mm 10 mps 759 mmHg 76%
    20:00 +9°C° 1 mm 10 mps 759 mmHg 78%
    21:00 +9°C° 1.4 mm 10 mps 759 mmHg 78%
    22:00 +10°C° 1.4 mm 9 mps 760 mmHg 78%
    23:00 +10°C° 1.4 mm 9 mps 760 mmHg 78%

    27 January, Saturday

    Time Temperature Precipitation Wind Pressure Humidity
    00:00 +10°C° 1.2 mm 9 mps 760 mmHg 79%
    01:00 +10°C° 1.2 mm 8 mps 760 mmHg 80%
    02:00 +9°C° 1.2 mm 8 mps 760 mmHg 81%
    03:00 +9°C° 0.9 mm 7 mps 761 mmHg 81%
    04:00 +9°C° 0.9 mm 7 mps 761 mmHg 81%
    05:00 +10°C° 0.9 mm 6 mps 761 mmHg 81%
    06:00 +10°C° 0.6 mm 6 mps 761 mmHg 81%
    07:00 +10°C° 0.6 mm 5 mps 762 mmHg 81%
    08:00 +10°C° 0.6 mm 5 mps 763 mmHg 81%
    09:00 +10°C° 0.4 mm 5 mps 763 mmHg 80%
    10:00 +12°C° 0.4 mm 4 mps 763 mmHg 79%
    11:00 +12°C° 0.4 mm 4 mps 763 mmHg 79%
    12:00 +12°C° 0.3 mm 4 mps 763 mmHg 79%
    13:00 +13°C° 0.3 mm 4 mps 763 mmHg 78%
    14:00 +13°C° 0.3 mm 4 mps 763 mmHg 78%
    15:00 +13°C° 0.5 mm 4 mps 763 mmHg 80%
    16:00 +13°C° 0.5 mm 4 mps 763 mmHg 81%
    17:00 +13°C° 0.5 mm 4 mps 764 mmHg 82%
    18:00 +13°C° 0.4 mm 3 mps 764 mmHg 83%
    19:00 +12°C° 0.4 mm 3 mps 765 mmHg 84%
    20:00 +12°C° 0.4 mm 3 mps 765 mmHg 85%
    21:00 +13°C° 0.2 mm 2 mps 765 mmHg 86%
    22:00 +13°C° 0.2 mm 2 mps 765 mmHg 87%
    23:00 +13°C° 0.2 mm 1 mps 765 mmHg 87%

    28 January, Sunday

    Time Temperature Precipitation Wind Pressure Humidity
    00:00 +13°C° 0.1 mm 1 mps 765 mmHg 87%
    01:00 +13°C° 0.1 mm 1 mps 765 mmHg 87%
    02:00 +12°C° 0.1 mm 1 mps 765 mmHg 87%
    03:00 +12°C° 0.1 mm 1 mps 765 mmHg 87%
    04:00 +12°C° 0.1 mm 1 mps 766 mmHg 87%
    05:00 +12°C° 0.1 mm 1 mps 766 mmHg 86%
    06:00 +13°C° 0.1 mm 1 mps 766 mmHg 85%
    07:00 +13°C° 0.1 mm 1 mps 766 mmHg 83%
    08:00 +13°C° 0.1 mm 1 mps 767 mmHg 81%
    09:00 +14°C° 0 mm 1 mps 767 mmHg 76%
    10:00 +15°C° 0 mm 1 mps 767 mmHg 70%
    11:00 +15°C° 0 mm 0 mps 767 mmHg 65%
    12:00 +16°C° 0 mm 1 mps 766 mmHg 63%
    13:00 +16°C° 0 mm 2 mps 766 mmHg 62%
    14:00 +16°C° 0 mm 3 mps 766 mmHg 61%
    15:00 +16°C° 0 mm 3 mps 766 mmHg 63%
    16:00 +16°C° 0 mm 3 mps 765 mmHg 65%
    17:00 +14°C° 0 mm 3 mps 765 mmHg 68%
    18:00 +15°C° 0 mm 2 mps 766 mmHg 70%
    19:00 +14°C° 0 mm 2 mps 766 mmHg 73%
    20:00 +13°C° 0 mm 2 mps 766 mmHg 75%
    21:00 +13°C° 0 mm 2 mps 766 mmHg 77%
    22:00 +13°C° 0 mm 1 mps 766 mmHg 78%
    23:00 +12°C° 0 mm 1 mps 766 mmHg 79%

    29 January, Monday

    Time Temperature Precipitation Wind Pressure Humidity
    00:00 +12°C° 0 mm 1 mps 766 mmHg 80%
    01:00 +12°C° 0 mm 1 mps 766 mmHg 81%
    02:00 +12°C° 0 mm 1 mps 765 mmHg 82%
    03:00 +11°C° 0 mm 1 mps 765 mmHg 82%
    04:00 +11°C° 0 mm 1 mps 765 mmHg 83%
    05:00 +11°C° 0 mm 1 mps 765 mmHg 84%
    06:00 +11°C° 0 mm 1 mps 766 mmHg 80%
    07:00 +12°C° 0 mm 1 mps 766 mmHg 77%
    08:00 +13°C° 0 mm 1 mps 766 mmHg 74%
    09:00 +14°C° 0 mm 1 mps 766 mmHg 69%
    10:00 +15°C° 0 mm 1 mps 766 mmHg 64%
    11:00 +16°C° 0 mm 1 mps 766 mmHg 59%
    12:00 +16°C° 0 mm 2 mps 765 mmHg 59%
    13:00 +17°C° 0 mm 3 mps 765 mmHg 58%
    14:00 +17°C° 0 mm 4 mps 764 mmHg 57%
    15:00 +15°C° 0 mm 4 mps 764 mmHg 61%
    16:00 +15°C° 0 mm 4 mps 764 mmHg 64%
    17:00 +14°C° 0 mm 4 mps 765 mmHg 67%
    18:00 +14°C° 0 mm 4 mps 765 mmHg 69%
    19:00 +13°C° 0 mm 4 mps 765 mmHg 71%
    20:00 +13°C° 0 mm 3 mps 766 mmHg 74%
    21:00 +12°C° 0 mm 3 mps 766 mmHg 75%
    22:00 +12°C° 0 mm 3 mps 766 mmHg 76%
    23:00 +12°C° 0 mm 2 mps 766 mmHg 77%
    Show more